Location: Invercargill
(46.4000°S, 168.3500°E)
Time: 09:33:36
(UTC+13:00)

Gbstr 26 Del rocket - Pass Details

Date: 24 January 2019
Orbit: 493 x 1264 km, 51.8° (Epoch: 21 October)

Event Time Altitude Azimuth Distance (km) Brightness Sun altitude
Rises 23:37:06 0° 247° (WSW) 2,809 7.4 -17.0°
Reaches altitude 10° 23:39:32 10° 241° (WSW) 1,832 6.5 -17.2°
Maximum altitude 23:43:28 48° 165° (SSE) 685 3.5 -17.6°
Enters shadow 23:45:52 20° 97° (E) 1,228 4.3 -17.9°
